QPF
0.00 0.00 0.00 0.00 0.00 0.00 0.00 0.00 0.00 0.00 0.00 0.00 0.00 0.00 0.00 0.00 0.00 0.00 0.00 0.00 0.00 0.00 0.00 0.00 0.00 0.00 0.00 0.00 0.00 0.00 0.00 0.00 0.00 0.00 0.00 0.00 0.00 0.00 0.00 0.00 0.00 0.00 0.00 0.00 0.00 0.00 0.00
0.00 0.00 0.00 0.00 0.00 0.00 0.00 0.00 0.00 0.00 0.00 0.00 0.00 0.00 0.00 0.00 0.00 0.00 0.00 0.00 0.00 0.00 0.00 0.00 0.00 0.00 0.00 0.00 0.00 0.00 0.00 0.00 0.00 0.00 0.00 0.00 0.00 0.00 0.00 0.00 0.00 0.00 0.00 0.00 0.00 0.00 0.00
0.00 0.00 0.00 0.00 0.00 0.00 0.00 0.00 0.00 0.00 0.00 0.00 0.00 0.00 0.00 0.00 0.00 0.00 0.00 0.00 0.00 0.00 0.00 0.00 0.00 0.00 0.00 0.00 0.00 0.00 0.00 0.00 0.00 0.00 0.00 0.00 0.00 0.00 0.00 0.00 0.00 0.00 0.00 0.00 0.00 0.00 0.00
0.00 0.00 0.00 0.00 0.00 0.00 0.00 0.00 0.00 0.00 0.00 0.00 0.00 0.00 0.00 0.00 0.00 0.00 0.00 0.00 0.00 0.00 0.00 0.00 0.00 0.00 0.00 0.00 0.00 0.00 0.00 0.00 0.00 0.00 0.00 0.00 0.00 0.00 0.00 0.00 0.00 0.00 0.00 0.00 0.00 0.00 0.00
0.00 0.00 0.00 0.00 0.00 0.00 0.00 0.00 0.00 0.00 0.00 0.00 0.00 0.00 0.00 0.00 0.00 0.00 0.00 0.00 0.00 0.00 0.00 0.00 0.00 0.00 0.00 0.00 0.00 0.00 0.00 0.00 0.00 0.00 0.00 0.00 0.00 0.00 0.00 0.00 0.00 0.00 0.00 0.00 0.00 0.00 0.00
0.00 0.00 0.00 0.00 0.00 0.00 0.00 0.00 0.00 0.00 0.00 0.00 0.00 0.00 0.00 0.00 0.00 0.00 0.00 0.00 0.00 0.00 0.00 0.00 0.00 0.00 0.00 0.00 0.00 0.00 0.00 0.00 0.00 0.00 0.00 0.00 0.00 0.00 0.00 0.00 0.00 0.00 0.00 0.00 0.00 0.00 0.00
0.00 0.00 0.00 0.00 0.00 0.00 0.00 0.00 0.00 0.00 0.00 0.00 0.00 0.00 0.00 0.00 0.00 0.00 0.00 0.00 0.00 0.00 0.00 0.00 0.00 0.00 0.00 0.00 0.00 0.00 0.00 0.00 0.00 0.00 0.00 0.00 0.00 0.00 0.00 0.00 0.00 0.00 0.00 0.00 0.00 0.00 0.00
0.00 0.00 0.00 0.00 0.00 0.00 0.00 0.00 0.00 0.00 0.00 0.00 0.00 0.00 0.00 0.00 0.00 0.00 0.00 0.00 0.00 0.00 0.00 0.00 0.00 0.00 0.00 0.00 0.00 0.00 0.00 0.00 0.00 0.00 0.00 0.00 0.00 0.00 0.00 0.00 0.00 0.00 0.00 0.00 0.00 0.00 0.00
0.00 0.00 0.00 0.00 0.00 0.00 0.00 0.00 0.00 0.00 0.00 0.00 0.00 0.00 0.00 0.00 0.00 0.00 0.00 0.00 0.00 0.00 0.00 0.00 0.00 0.00 0.00 0.00 0.00 0.00 0.00 0.00 0.00 0.00 0.00 0.00 0.00 0.00 0.00 0.00 0.00 0.00 0.00 0.00 0.00 0.00 0.00
0.00 0.00 0.00 0.00 0.00 0.00 0.00 0.00 0.00 0.00 0.00 0.00 0.00 0.00 0.00 0.00 0.00 0.00 0.00 0.00 0.00 0.00 0.00 0.00 0.00 0.00 0.00 0.00 0.00 0.00 0.00 0.00 0.00 0.00 0.00 0.00 0.00 0.00 0.00 0.00 0.00 0.00 0.00 0.00 0.00 0.00 0.00
0.01 0.00 0.00 0.00 0.00 0.00 0.00 0.00 0.00 0.00 0.00 0.00 0.00 0.00 0.00 0.00 0.00 0.00 0.00 0.00 0.00 0.00 0.00 0.00 0.00 0.00 0.00 0.00 0.00 0.00 0.00 0.00 0.00 0.00 0.00 0.00 0.00 0.00 0.00 0.00 0.00 0.00 0.00 0.00 0.00 0.00 0.00
0.01 0.01 0.01 0.00 0.00 0.00 0.00 0.00 0.00 0.00 0.00 0.00 0.00 0.00 0.00 0.00 0.00 0.00 0.00 0.00 0.00 0.00 0.00 0.00 0.00 0.00 0.00 0.00 0.00 0.00 0.00 0.00 0.00 0.00 0.00 0.00 0.00 0.00 0.00 0.00 0.00 0.00 0.00 0.00 0.00 0.00 0.00
0.01 0.01 0.01 0.01 0.00 0.00 0.00 0.00 0.00 0.00 0.00 0.00 0.00 0.00 0.00 0.00 0.00 0.00 0.00 0.00 0.00 0.00 0.00 0.00 0.00 0.00 0.00 0.00 0.00 0.00 0.00 0.00 0.00 0.00 0.00 0.00 0.00 0.00 0.00 0.00 0.00 0.00 0.00 0.00 0.00 0.00 0.00
0.01 0.01 0.01 0.01 0.00 0.00 0.00 0.00 0.00 0.00 0.00 0.00 0.00 0.00 0.00 0.00 0.00 0.00 0.00 0.00 0.00 0.00 0.00 0.00 0.00 0.00 0.00 0.00 0.00 0.00 0.00 0.00 0.00 0.00 0.00 0.00 0.00 0.00 0.00 0.00 0.00 0.00 0.00 0.00 0.00 0.00 0.00
0.00 0.01 0.01 0.01 0.01 0.01 0.00 0.00 0.00 0.00 0.00 0.00 0.00 0.00 0.00 0.00 0.00 0.00 0.00 0.00 0.00 0.00 0.00 0.00 0.00 0.00 0.00 0.00 0.00 0.00 0.00 0.00 0.00 0.00 0.00 0.00 0.00 0.00 0.00 0.00 0.00 0.00 0.00 0.00 0.00 0.00 0.00
0.00 0.00 0.01 0.01 0.01 0.01 0.01 0.00 0.00 0.00 0.00 0.00 0.00 0.00 0.00 0.00 0.00 0.00 0.00 0.00 0.00 0.00 0.00 0.00 0.00 0.00 0.00 0.00 0.00 0.00 0.00 0.00 0.00 0.00 0.00 0.00 0.00 0.00 0.00 0.00 0.00 0.00 0.00 0.00 0.00 0.00 0.00
0.01 0.00 0.01 0.01 0.01 0.01 0.01 0.01 0.00 0.00 0.00 0.00 0.00 0.00 0.00 0.00 0.00 0.00 0.00 0.00 0.00 0.00 0.00 0.00 0.00 0.00 0.00 0.00 0.00 0.00 0.00 0.00 0.00 0.00 0.00 0.00 0.00 0.00 0.00 0.00 0.00 0.00 0.00 0.00 0.00 0.00 0.00
0.02 0.02 0.01 0.00 0.01 0.02 0.02 0.01 0.00 0.00 0.00 0.00 0.00 0.00 0.00 0.00 0.00 0.00 0.00 0.00 0.00 0.00 0.00 0.00 0.00 0.00 0.00 0.00 0.00 0.00 0.00 0.00 0.00 0.00 0.00 0.00 0.00 0.00 0.00 0.00 0.00 0.00 0.00 0.00 0.00 0.00 0.00
0.03 0.03 0.02 0.01 0.01 0.01 0.02 0.02 0.00 0.00 0.00 0.00 0.00 0.00 0.00 0.00 0.00 0.00 0.00 0.00 0.00 0.00 0.00 0.00 0.00 0.00 0.00 0.00 0.00 0.00 0.00 0.00 0.00 0.00 0.00 0.00 0.00 0.00 0.00 0.00 0.00 0.00 0.00 0.00 0.00 0.00 0.00
0.03 0.03 0.03 0.03 0.02 0.02 0.02 0.02 0.00 0.00 0.00 0.00 0.00 0.00 0.00 0.00 0.00 0.00 0.00 0.00 0.00 0.00 0.00 0.00 0.00 0.00 0.00 0.00 0.00 0.00 0.00 0.00 0.00 0.00 0.00 0.00 0.00 0.00 0.00 0.00 0.00 0.00 0.00 0.00 0.00 0.00 0.00
0.03 0.04 0.04 0.04 0.04 0.03 0.02 0.02 0.01 0.00 0.00 0.00 0.00 0.00 0.00 0.00 0.00 0.00 0.00 0.00 0.00 0.00 0.00 0.00 0.00 0.00 0.00 0.00 0.00 0.00 0.00 0.00 0.00 0.00 0.00 0.00 0.00 0.00 0.00 0.00 0.00 0.00 0.00 0.00 0.00 0.00 0.00
0.02 0.03 0.04 0.04 0.04 0.03 0.03 0.02 0.01 0.00 0.00 0.00 0.00 0.00 0.00 0.00 0.00 0.00 0.00 0.00 0.00 0.00 0.00 0.00 0.00 0.00 0.00 0.00 0.00 0.00 0.00 0.00 0.00 0.00 0.00 0.00 0.00 0.00 0.00 0.00 0.00 0.00 0.00 0.00 0.00 0.00 0.00
0.01 0.01 0.02 0.03 0.03 0.03 0.02 0.02 0.02 0.01 0.01 0.00 0.00 0.00 0.00 0.00 0.00 0.00 0.00 0.00 0.00 0.00 0.00 0.00 0.00 0.00 0.00 0.00 0.00 0.00 0.00 0.00 0.00 0.00 0.00 0.00 0.00 0.00 0.00 0.00 0.00 0.00 0.00 0.00 0.00 0.00 0.00
0.01 0.01 0.01 0.02 0.02 0.02 0.02 0.02 0.02 0.02 0.02 0.00 0.00 0.00 0.00 0.00 0.00 0.00 0.00 0.00 0.00 0.00 0.00 0.00 0.00 0.00 0.00 0.00 0.00 0.00 0.00 0.00 0.00 0.00 0.00 0.00 0.00 0.00 0.00 0.00 0.00 0.00 0.00 0.00 0.00 0.00 0.00
0.01 0.01 0.01 0.00 0.01 0.01 0.01 0.02 0.02 0.02 0.04 0.03 0.00 0.00 0.00 0.00 0.00 0.00 0.00 0.00 0.00 0.00 0.00 0.00 0.00 0.00 0.00 0.00 0.00 0.00 0.00 0.00 0.00 0.00 0.00 0.00 0.00 0.00 0.00 0.00 0.00 0.00 0.00 0.00 0.00 0.00 0.00
0.01 0.01 0.00 0.00 0.00 0.01 0.01 0.02 0.03 0.03 0.03 0.03 0.00 0.00 0.00 0.00 0.00 0.00 0.00 0.00 0.00 0.00 0.00 0.00 0.00 0.00 0.00 0.00 0.00 0.00 0.00 0.00 0.00 0.00 0.00 0.00 0.00 0.00 0.00 0.00 0.00 0.00 0.00 0.00 0.00 0.00 0.00
0.01 0.01 0.00 0.01 0.00 0.01 0.02 0.03 0.02 0.02 0.02 0.02 0.00 0.00 0.00 0.00 0.00 0.00 0.00 0.00 0.00 0.00 0.00 0.00 0.00 0.00 0.00 0.00 0.00 0.00 0.00 0.00 0.00 0.00 0.00 0.00 0.00 0.00 0.00 0.00 0.00 0.00 0.00 0.00 0.00 0.00 0.00
0.01 0.01 0.01 0.00 0.00 0.01 0.01 0.02 0.02 0.01 0.01 0.01 0.00 0.00 0.00 0.00 0.00 0.00 0.00 0.00 0.00 0.00 0.00 0.00 0.00 0.00 0.00 0.00 0.00 0.00 0.00 0.00 0.00 0.00 0.00 0.00 0.00 0.00 0.00 0.00 0.00 0.00 0.00 0.00 0.00 0.00 0.00
0.02 0.02 0.01 0.01 0.00 0.00 0.00 0.00 0.01 0.00 0.01 0.00 0.00 0.00 0.00 0.00 0.00 0.00 0.00 0.00 0.00 0.00 0.00 0.00 0.00 0.00 0.00 0.00 0.00 0.00 0.00 0.00 0.00 0.00 0.00 0.00 0.00 0.00 0.00 0.00 0.00 0.00 0.00 0.00 0.00 0.00 0.00
MSLP
1021.11 1020.55 1020.22 1020.01 1019.68 1019.25 1018.72 1018.39 1018.04 1017.61 1017.45 1017.18 1016.82 1016.64 1016.30 1016.17 1016.06 1015.86 1015.60 1015.31 1014.94 1014.83 1014.75 1014.61 1014.70 1014.93 1015.53 1015.44 1013.88 1013.19 1013.24 1013.27 1013.58 1014.15 1014.13 1013.82 1012.81 1014.37 1015.11 1015.41 1015.62 1015.92 1016.40 1016.63 1016.79 1016.79 1016.69
1021.00 1020.84 1020.39 1019.78 1019.61 1019.50 1019.00 1018.38 1018.12 1017.76 1017.23 1017.15 1016.82 1016.48 1016.22 1015.86 1015.91 1015.76 1015.52 1015.34 1014.82 1014.82 1014.67 1014.61 1014.69 1015.03 1015.51 1014.75 1013.27 1013.31 1013.28 1013.18 1013.44 1013.81 1013.62 1013.58 1013.26 1013.96 1015.10 1015.68 1015.88 1016.32 1016.66 1016.95 1017.06 1017.09 1016.97
1020.98 1020.46 1020.38 1020.03 1019.38 1019.26 1019.08 1018.69 1017.96 1017.81 1017.33 1016.80 1016.79 1016.45 1016.22 1015.88 1015.67 1015.58 1015.44 1015.18 1014.58 1014.70 1014.40 1014.52 1014.67 1015.21 1014.86 1013.87 1013.30 1013.28 1013.12 1013.20 1013.32 1013.49 1013.40 1013.38 1012.91 1014.35 1015.40 1016.00 1016.35 1016.72 1017.21 1017.29 1017.29 1017.22 1017.30
1021.25 1020.89 1020.22 1019.83 1019.70 1019.03 1018.81 1018.69 1018.34 1017.59 1017.42 1016.88 1016.48 1016.35 1016.03 1015.91 1015.52 1015.38 1015.23 1015.22 1014.94 1014.72 1014.74 1014.68 1014.86 1015.10 1014.31 1013.40 1013.32 1013.27 1013.21 1013.24 1013.25 1013.15 1013.44 1013.89 1013.88 1015.17 1015.60 1016.33 1016.82 1017.34 1017.72 1017.81 1017.36 1017.37 1017.57
1021.16 1020.85 1020.57 1020.14 1019.39 1019.12 1018.54 1018.36 1018.13 1017.83 1017.17 1017.01 1016.39 1016.10 1015.88 1015.60 1015.42 1015.06 1014.98 1014.75 1014.63 1014.50 1014.48 1014.50 1014.86 1014.78 1014.13 1013.40 1013.57 1013.46 1013.39 1013.52 1013.43 1013.58 1013.85 1013.64 1014.53 1015.80 1016.30 1017.14 1018.05 1018.24 1018.02 1017.91 1017.48 1017.38 1017.64
1021.46 1021.03 1020.54 1020.25 1019.87 1019.16 1018.64 1018.08 1017.87 1017.57 1017.27 1016.81 1016.47 1015.85 1015.63 1015.35 1015.15 1014.86 1014.56 1014.42 1014.22 1014.22 1014.37 1014.47 1014.51 1014.89 1014.12 1013.70 1013.73 1013.65 1013.65 1013.66 1013.93 1014.38 1014.56 1014.68 1015.42 1016.47 1017.16 1017.78 1018.01 1017.90 1017.91 1017.56 1017.42 1017.53 1017.73
1021.65 1021.20 1020.72 1020.35 1019.88 1019.41 1018.87 1018.23 1017.73 1017.34 1017.09 1016.72 1016.31 1015.96 1015.37 1015.18 1014.88 1014.67 1014.30 1014.30 1014.80 1014.78 1014.32 1014.11 1013.88 1013.77 1013.63 1013.75 1013.78 1013.92 1013.89 1013.90 1014.20 1014.83 1015.32 1015.81 1016.54 1016.59 1016.67 1017.34 1016.97 1016.96 1017.08 1017.30 1017.32 1017.31 1017.70
1022.01 1021.45 1020.92 1020.29 1019.83 1019.49 1018.93 1018.36 1017.68 1017.23 1016.79 1016.77 1016.14 1015.79 1015.41 1014.88 1014.70 1014.52 1014.55 1014.54 1014.51 1014.76 1014.41 1013.83 1013.67 1013.58 1013.50 1013.56 1013.82 1013.95 1013.94 1014.20 1014.84 1015.43 1015.61 1016.12 1016.36 1016.31 1016.71 1016.95 1016.69 1016.75 1017.21 1017.50 1017.56 1017.60 1018.00
1021.79 1021.46 1021.06 1020.59 1019.95 1019.21 1018.93 1018.52 1017.95 1017.13 1016.77 1016.32 1016.23 1015.54 1015.33 1014.81 1014.31 1014.44 1014.39 1014.28 1014.36 1014.45 1014.46 1013.90 1013.41 1013.28 1013.36 1013.61 1013.70 1013.83 1013.94 1014.29 1014.86 1015.50 1015.87 1016.24 1016.29 1016.37 1016.47 1016.69 1016.95 1017.31 1017.54 1017.77 1017.92 1018.16 1018.42
1021.52 1021.08 1020.70 1020.45 1020.05 1019.43 1018.87 1018.43 1017.93 1017.39 1016.47 1016.37 1015.99 1015.68 1015.07 1014.90 1014.53 1014.40 1014.26 1014.10 1014.18 1014.40 1014.77 1013.82 1013.37 1012.98 1013.21 1013.34 1013.73 1013.63 1013.77 1014.34 1014.67 1015.33 1016.11 1016.41 1016.37 1016.43 1016.49 1016.86 1017.04 1017.58 1017.65 1018.03 1018.65 1019.04 1019.45
1021.37 1020.86 1020.49 1020.06 1019.66 1019.39 1018.92 1018.23 1017.85 1017.39 1016.91 1015.97 1015.77 1015.66 1015.08 1014.77 1014.72 1014.36 1014.28 1014.00 1014.18 1014.53 1014.73 1013.69 1013.28 1012.94 1012.99 1013.51 1013.68 1013.69 1013.81 1014.19 1014.73 1015.38 1016.02 1016.45 1016.49 1016.51 1016.79 1016.76 1017.01 1017.84 1018.27 1018.97 1019.57 1020.13 1020.31
1021.43 1020.93 1020.42 1019.79 1019.36 1018.87 1018.61 1018.24 1017.60 1017.15 1016.73 1016.17 1015.59 1015.09 1015.43 1014.61 1014.79 1014.21 1013.88 1014.11 1014.36 1015.35 1014.54 1013.50 1013.16 1013.14 1013.39 1013.54 1013.90 1014.08 1014.15 1014.29 1014.73 1015.45 1016.11 1016.67 1016.59 1016.67 1016.82 1017.17 1017.48 1018.28 1019.11 1020.11 1020.92 1021.42 1021.63
1021.29 1020.73 1020.22 1019.45 1018.89 1018.36 1018.03 1017.74 1017.47 1016.96 1016.45 1015.90 1015.42 1014.89 1015.09 1014.91 1014.13 1014.16 1014.07 1014.55 1015.34 1015.05 1013.77 1013.49 1013.24 1013.31 1013.54 1013.86 1014.17 1014.21 1014.43 1014.71 1014.87 1015.89 1016.83 1017.25 1017.23 1017.07 1016.93 1017.73 1018.40 1018.90 1019.99 1021.45 1022.38 1022.52 1021.69
1021.32 1020.73 1019.95 1019.34 1018.29 1017.74 1017.40 1017.13 1016.90 1016.68 1016.13 1015.72 1014.97 1014.55 1013.77 1014.16 1014.05 1013.83 1014.72 1015.09 1015.32 1013.28 1013.17 1012.68 1012.91 1013.44 1013.75 1013.83 1014.11 1014.36 1014.67 1014.99 1014.92 1015.18 1016.86 1017.40 1017.92 1017.34 1017.26 1017.50 1017.93 1019.15 1019.72 1020.76 1021.79 1022.70 1021.80
1021.16 1020.67 1019.84 1019.32 1018.51 1017.56 1016.64 1016.30 1016.15 1016.23 1016.00 1015.46 1014.74 1014.23 1013.62 1013.49 1013.74 1014.11 1014.99 1015.16 1013.28 1012.39 1011.82 1012.34 1013.00 1013.54 1013.82 1013.78 1014.06 1014.50 1014.85 1014.76 1014.37 1014.66 1015.29 1016.61 1017.35 1017.55 1017.63 1017.73 1018.20 1019.31 1019.85 1020.16 1021.52 1022.74 1022.26
1021.09 1020.56 1019.72 1018.93 1018.28 1017.50 1016.65 1015.44 1015.32 1015.39 1015.65 1015.43 1015.21 1014.41 1013.29 1012.34 1013.74 1014.13 1014.73 1013.88 1012.48 1011.29 1011.22 1011.61 1012.02 1012.43 1013.30 1013.88 1014.35 1014.55 1014.64 1013.69 1013.88 1014.18 1014.30 1015.36 1017.15 1018.01 1018.18 1018.17 1018.59 1018.80 1019.47 1020.44 1021.36 1022.44 1022.49
1020.71 1020.01 1019.41 1018.48 1017.87 1017.41 1016.35 1014.55 1014.41 1014.72 1014.96 1015.36 1015.25 1014.36 1012.71 1012.37 1012.95 1014.50 1014.08 1012.93 1011.71 1010.71 1010.59 1010.87 1011.33 1012.27 1012.73 1013.26 1013.71 1014.12 1014.09 1013.49 1013.41 1014.10 1014.27 1015.14 1016.25 1018.79 1018.66 1018.59 1018.58 1019.37 1019.53 1020.33 1021.05 1021.71 1022.03
1020.56 1019.65 1018.96 1018.24 1017.60 1016.92 1015.87 1014.27 1013.34 1013.84 1014.65 1015.01 1014.97 1014.32 1012.66 1012.60 1013.33 1013.72 1013.08 1011.86 1010.61 1010.52 1010.39 1010.52 1010.82 1011.12 1011.97 1012.54 1013.07 1013.56 1013.26 1012.83 1012.63 1013.14 1014.39 1015.00 1016.68 1018.50 1018.52 1018.44 1018.50 1018.63 1018.94 1019.61 1020.93 1022.17 1022.50
1020.31 1019.52 1018.78 1018.01 1017.31 1016.15 1015.35 1013.59 1012.00 1012.82 1013.58 1014.31 1014.42 1013.60 1012.78 1012.80 1012.80 1012.77 1012.17 1011.06 1010.28 1010.34 1010.32 1010.39 1010.72 1010.68 1010.91 1011.73 1012.66 1012.76 1012.65 1012.66 1012.78 1013.11 1013.50 1014.51 1016.00 1017.87 1018.45 1018.75 1018.60 1018.70 1018.94 1019.54 1020.42 1021.21 1021.93
1020.18 1019.22 1018.62 1017.99 1016.96 1015.97 1015.14 1013.42 1011.78 1011.86 1012.60 1013.44 1014.05 1013.44 1013.22 1012.85 1011.98 1011.38 1011.37 1010.66 1010.11 1009.60 1009.74 1009.99 1010.23 1010.29 1010.83 1011.29 1011.57 1012.39 1012.85 1013.03 1013.11 1013.27 1013.50 1013.89 1015.39 1015.98 1016.65 1016.67 1017.11 1018.30 1018.46 1019.18 1019.84 1021.31 1020.89
1020.01 1019.34 1018.40 1017.66 1016.92 1016.04 1014.68 1013.99 1013.62 1011.42 1011.68 1012.33 1012.83 1012.10 1011.69 1012.14 1011.57 1010.87 1010.53 1009.84 1009.63 1009.59 1009.47 1009.67 1010.20 1010.24 1010.22 1011.14 1011.66 1012.15 1012.75 1013.44 1013.63 1013.72 1014.16 1014.62 1016.01 1016.79 1016.93 1016.90 1017.14 1017.43 1017.87 1018.61 1019.29 1018.93 1019.52
1020.05 1019.16 1018.41 1017.45 1016.77 1016.20 1014.97 1014.06 1013.79 1012.42 1011.06 1011.84 1011.77 1011.49 1011.20 1011.18 1010.54 1010.30 1010.09 1009.58 1009.28 1009.17 1009.16 1009.35 1009.67 1009.58 1010.32 1010.69 1010.45 1011.37 1012.28 1013.04 1013.27 1014.51 1014.94 1015.50 1016.84 1017.46 1018.16 1017.85 1017.93 1018.02 1018.07 1018.30 1018.50 1018.70 1018.87
1020.11 1019.17 1018.20 1017.28 1016.50 1015.79 1015.23 1014.30 1013.47 1012.94 1011.72 1011.20 1010.85 1010.66 1010.62 1010.53 1010.43 1010.12 1008.91 1008.38 1008.33 1008.76 1008.74 1008.52 1008.72 1009.70 1010.21 1010.11 1010.62 1011.01 1011.50 1012.10 1012.77 1013.88 1015.27 1016.22 1017.26 1018.30 1018.79 1018.53 1018.40 1018.40 1017.32 1017.16 1017.63 1017.81 1018.11
1019.74 1019.07 1018.19 1017.33 1016.32 1015.62 1014.97 1014.28 1013.00 1012.92 1012.71 1012.19 1011.40 1011.09 1010.71 1010.33 1010.25 1009.53 1008.57 1008.18 1008.21 1008.48 1008.80 1008.94 1009.15 1009.60 1009.86 1009.87 1010.71 1011.54 1012.47 1013.05 1013.64 1014.54 1014.76 1016.31 1017.40 1018.19 1019.45 1019.53 1018.80 1016.76 1016.29 1016.31 1017.14 1018.02 1018.52
1019.58 1018.69 1018.00 1017.11 1016.35 1015.74 1014.80 1013.99 1013.58 1012.91 1012.33 1011.43 1011.38 1011.09 1010.52 1010.02 1009.24 1009.30 1008.85 1008.37 1008.34 1008.61 1009.14 1009.44 1009.70 1009.88 1009.77 1010.23 1011.71 1012.77 1013.85 1014.18 1014.95 1015.40 1015.49 1015.72 1016.65 1018.38 1019.12 1019.20 1017.49 1016.85 1016.72 1016.68 1016.88 1018.13 1018.82
1019.19 1018.56 1017.76 1017.07 1016.17 1015.33 1014.65 1014.02 1013.18 1012.49 1011.81 1011.57 1011.11 1010.64 1010.53 1010.45 1009.57 1008.87 1009.01 1008.63 1008.94 1009.23 1009.74 1010.01 1010.17 1010.06 1010.27 1010.94 1012.00 1012.89 1013.83 1014.21 1015.33 1015.87 1015.95 1016.01 1016.23 1017.15 1018.65 1018.60 1017.40 1016.35 1016.21 1016.25 1016.59 1018.18 1019.01
1018.69 1018.18 1017.47 1016.75 1016.09 1015.43 1014.66 1014.01 1013.01 1012.32 1011.95 1011.74 1010.79 1010.20 1010.34 1010.47 1009.85 1009.66 1009.66 1009.63 1009.20 1009.61 1010.06 1010.41 1010.33 1010.65 1010.86 1011.54 1012.42 1012.97 1013.47 1013.60 1014.71 1015.41 1016.18 1016.58 1016.77 1016.89 1017.45 1017.54 1016.55 1015.96 1016.29 1016.79 1017.81 1018.66 1019.23
1018.11 1017.68 1017.11 1016.50 1015.82 1015.18 1014.29 1013.74 1012.56 1012.04 1011.80 1011.22 1010.17 1010.16 1010.20 1010.66 1010.61 1010.57 1010.33 1010.40 1010.19 1010.11 1010.32 1010.65 1010.80 1011.29 1011.98 1012.41 1012.62 1012.83 1013.21 1013.43 1014.04 1014.56 1014.86 1015.13 1015.97 1016.50 1017.12 1017.40 1016.63 1015.91 1016.97 1017.47 1018.00 1018.83 1019.54
1017.56 1017.06 1016.67 1016.17 1015.52 1014.90 1014.34 1013.50 1012.24 1011.55 1010.96 1010.00 1009.17 1009.20 1009.55 1010.92 1011.86 1011.78 1011.66 1011.55 1011.26 1011.08 1010.69 1010.98 1010.62 1011.11 1011.48 1012.05 1012.74 1012.84 1013.36 1013.81 1013.82 1014.81 1014.73 1015.05 1014.58 1015.15 1015.84 1016.19 1016.17 1016.57 1016.75 1017.51 1018.12 1018.96 1020.42
Thickness
5620 5622 5619 5614 5609 5607 5605 5601 5597 5594 5585 5578 5572 5565 5561 5553 5545 5539 5533 5528 5530 5531 5534 5541 5547 5551 5555 5565 5588 5611 5623 5633 5642 5649 5659 5669 5681 5673 5672 5677 5685 5684 5683 5683 5684 5686 5691
5620 5618 5618 5618 5613 5605 5604 5603 5599 5595 5591 5583 5578 5573 5568 5564 5555 5550 5545 5538 5541 5540 5544 5549 5553 5555 5559 5571 5603 5614 5624 5633 5642 5649 5661 5669 5676 5679 5671 5673 5678 5678 5677 5677 5681 5684 5688
5620 5620 5617 5616 5616 5610 5605 5601 5603 5597 5595 5591 5583 5580 5574 5571 5567 5560 5556 5550 5553 5549 5552 5556 5558 5560 5571 5585 5605 5616 5625 5633 5642 5651 5659 5669 5680 5673 5669 5667 5671 5668 5668 5672 5675 5680 5681
5616 5616 5617 5617 5614 5614 5610 5604 5600 5602 5596 5595 5592 5587 5585 5578 5577 5571 5566 5562 5558 5557 5558 5563 5564 5568 5578 5600 5609 5616 5624 5632 5643 5654 5659 5664 5669 5663 5666 5665 5660 5660 5656 5656 5673 5674 5676
5612 5613 5613 5612 5615 5614 5613 5609 5606 5601 5601 5597 5596 5594 5592 5589 5585 5583 5578 5575 5573 5571 5570 5573 5573 5578 5585 5604 5606 5616 5624 5628 5640 5649 5656 5664 5662 5654 5657 5646 5639 5641 5646 5652 5667 5669 5670
5605 5607 5608 5609 5609 5612 5614 5612 5609 5606 5603 5601 5599 5600 5598 5597 5595 5593 5591 5589 5588 5585 5583 5583 5585 5584 5594 5600 5608 5616 5625 5632 5635 5641 5648 5651 5647 5640 5637 5635 5622 5640 5646 5656 5663 5665 5666
5598 5599 5602 5603 5605 5607 5609 5612 5611 5610 5606 5604 5604 5602 5604 5602 5603 5601 5602 5598 5591 5589 5593 5595 5597 5599 5602 5609 5615 5618 5626 5631 5635 5637 5631 5638 5634 5636 5643 5639 5652 5649 5658 5659 5660 5664 5663
5588 5591 5594 5598 5600 5601 5605 5608 5612 5610 5610 5605 5606 5606 5606 5608 5607 5608 5606 5604 5603 5600 5597 5604 5605 5607 5612 5616 5614 5621 5630 5628 5629 5625 5632 5631 5633 5643 5642 5645 5654 5657 5655 5652 5655 5658 5656
5580 5582 5586 5589 5593 5598 5600 5602 5606 5611 5610 5610 5607 5608 5608 5610 5612 5609 5610 5611 5608 5607 5602 5607 5612 5613 5615 5617 5618 5621 5628 5628 5627 5626 5630 5624 5637 5639 5644 5645 5644 5642 5644 5643 5652 5649 5649
5573 5574 5577 5580 5584 5589 5593 5597 5601 5605 5611 5608 5608 5607 5610 5610 5611 5611 5611 5613 5611 5609 5581 5608 5612 5618 5619 5622 5620 5628 5630 5628 5631 5623 5622 5627 5634 5636 5640 5640 5640 5640 5642 5641 5640 5635 5629
5566 5568 5570 5571 5576 5580 5585 5591 5595 5598 5601 5608 5608 5604 5607 5609 5608 5611 5612 5613 5611 5607 5561 5613 5612 5622 5622 5619 5621 5624 5630 5629 5624 5625 5626 5627 5627 5632 5634 5640 5639 5637 5635 5632 5627 5617 5623
5555 5558 5560 5564 5567 5572 5575 5581 5587 5592 5596 5600 5603 5608 5599 5607 5605 5610 5612 5609 5608 5576 5571 5611 5615 5614 5615 5619 5618 5620 5623 5628 5626 5623 5619 5621 5626 5630 5631 5627 5631 5624 5621 5611 5597 5595 5590
5541 5544 5548 5553 5558 5564 5567 5570 5576 5582 5588 5594 5598 5601 5599 5597 5606 5605 5606 5602 5568 5560 5614 5611 5612 5613 5614 5613 5613 5616 5616 5616 5615 5609 5612 5612 5617 5621 5626 5617 5619 5615 5607 5575 5586 5564 5593
5522 5526 5533 5538 5546 5550 5555 5560 5564 5569 5578 5583 5591 5595 5602 5596 5598 5602 5593 5589 5580 5610 5604 5618 5615 5611 5610 5612 5613 5613 5611 5611 5619 5618 5593 5596 5602 5611 5619 5621 5613 5604 5606 5579 5589 5581 5587
5507 5508 5513 5514 5521 5531 5541 5548 5553 5555 5561 5570 5579 5587 5594 5593 5590 5590 5580 5539 5588 5605 5618 5612 5612 5607 5606 5612 5612 5612 5605 5610 5618 5616 5617 5604 5610 5608 5610 5612 5611 5602 5593 5601 5569 5560 5571
5484 5483 5488 5493 5495 5501 5513 5529 5538 5541 5544 5551 5557 5569 5583 5591 5578 5574 5568 5582 5603 5617 5615 5615 5609 5608 5599 5601 5604 5602 5601 5619 5624 5616 5624 5614 5598 5598 5599 5603 5600 5601 5596 5583 5556 5570 5583
5451 5452 5451 5453 5458 5465 5481 5505 5518 5522 5526 5529 5536 5553 5573 5577 5573 5555 5551 5577 5602 5612 5615 5610 5608 5600 5604 5600 5599 5598 5606 5620 5620 5614 5619 5611 5600 5582 5590 5586 5586 5584 5583 5573 5567 5569 5565
5417 5413 5414 5416 5422 5432 5454 5480 5498 5504 5503 5508 5513 5531 5555 5558 5551 5541 5559 5583 5604 5602 5604 5607 5604 5609 5600 5594 5594 5595 5606 5613 5614 5613 5609 5608 5576 5544 5584 5584 5585 5587 5586 5580 5566 5569 5536
5385 5383 5386 5391 5401 5413 5429 5455 5482 5488 5490 5487 5495 5514 5530 5536 5531 5537 5561 5584 5592 5590 5591 5593 5595 5602 5604 5596 5600 5596 5602 5606 5603 5605 5600 5596 5566 5538 5572 5571 5573 5576 5572 5564 5543 5534 5534
5363 5366 5365 5369 5381 5393 5407 5439 5461 5471 5476 5477 5476 5493 5502 5514 5522 5547 5562 5573 5580 5587 5589 5587 5591 5594 5598 5598 5595 5589 5593 5597 5597 5600 5601 5598 5570 5586 5584 5591 5569 5563 5565 5554 5555 5507 5541
5347 5346 5349 5356 5367 5380 5395 5412 5424 5452 5461 5466 5467 5484 5498 5502 5517 5533 5547 5566 5570 5575 5577 5578 5579 5585 5591 5585 5586 5585 5578 5578 5583 5588 5580 5579 5554 5568 5573 5572 5571 5571 5562 5546 5537 5562 5549
5329 5331 5334 5344 5358 5367 5379 5399 5405 5424 5443 5449 5462 5468 5476 5488 5509 5521 5533 5541 5557 5568 5565 5571 5572 5582 5573 5574 5588 5580 5563 5562 5574 5561 5562 5550 5523 5505 5509 5547 5548 5553 5552 5540 5547 5551 5539
5314 5317 5323 5334 5345 5356 5364 5383 5397 5407 5422 5437 5454 5460 5469 5480 5488 5500 5518 5545 5556 5556 5557 5565 5570 5561 5558 5568 5570 5568 5568 5562 5563 5551 5541 5537 5509 5506 5533 5528 5510 5503 5534 5546 5541 5538 5547
5306 5305 5310 5319 5333 5346 5351 5367 5386 5395 5404 5415 5430 5442 5452 5469 5472 5491 5517 5525 5534 5536 5546 5546 5550 5552 5558 5550 5548 5545 5537 5534 5531 5524 5534 5515 5509 5500 5475 5488 5490 5537 5534 5542 5538 5516 5512
5300 5299 5300 5310 5322 5330 5343 5355 5367 5381 5392 5407 5416 5427 5438 5452 5477 5482 5490 5506 5516 5519 5522 5525 5527 5530 5533 5540 5523 5523 5507 5531 5512 5500 5512 5517 5513 5487 5487 5472 5510 5513 5511 5510 5518 5509 5495
5295 5293 5293 5297 5308 5321 5333 5343 5356 5371 5385 5392 5404 5416 5425 5433 5457 5474 5475 5488 5489 5495 5496 5494 5503 5508 5519 5515 5511 5503 5494 5513 5500 5498 5494 5502 5508 5505 5459 5470 5493 5515 5504 5504 5508 5498 5478
5290 5289 5289 5291 5296 5306 5319 5332 5343 5359 5370 5378 5396 5409 5414 5419 5437 5442 5456 5463 5477 5478 5476 5478 5488 5496 5496 5492 5493 5490 5495 5502 5491 5487 5484 5480 5479 5494 5482 5466 5482 5492 5485 5487 5485 5494 5458
5286 5285 5285 5286 5289 5295 5309 5323 5341 5349 5358 5372 5395 5400 5405 5407 5417 5422 5430 5445 5451 5462 5466 5466 5473 5472 5469 5478 5480 5478 5478 5483 5484 5482 5476 5487 5480 5477 5473 5472 5478 5474 5472 5474 5457 5442 5441
5281 5281 5280 5281 5283 5287 5292 5313 5332 5344 5356 5372 5391 5397 5400 5397 5394 5398 5406 5413 5422 5430 5446 5440 5460 5460 5462 5459 5455 5459 5469 5454 5475 5471 5468 5471 5480 5472 5474 5476 5455 5452 5455 5443 5441 5431 5418